Regional Weather Roundup
Issued by NWS

Home | Current Version | Previous Version | Text Only | Print | Product List | Glossary Off
Versions: 1 2 3 4 5 6 7 8 9 10 11 12 13 14 15 16 17 18 19 20 21 22 23 24 25 26 27 28 29 30 31 32 33 34 35 36 37 38 39 40 41 42 43 44 45 46 47 48 49 50

000
ASUS43 KDTX 251201
RWRMI
MICHIGAN HOURLY REGIONAL WEATHER ROUNDUP
NATIONAL WEATHER SERVICE DETROIT/PONTIAC MI
800 AM EDT TUE JUL 25 2017

NOTE: "FAIR" INDICATES FEW OR NO CLOUDS BELOW 12,000 FEET WITH NO
SIGNIFICANT WEATHER AND/OR OBSTRUCTION TO VISIBILITY.

MIZ047>049-052>055-059>063-066>070-074>076-081>083-251300-
SOUTHEAST LOWER MICHIGAN

CITY           SKY/WX    TMP DP  RH WIND       PRES   REMARKS
ADRIAN         SUNNY     59  55  87 CALM      30.23R
6HR MIN TEMP:  50; 6HR MAX TEMP:  59;

ALMA           SUNNY     56  55  96 CALM      30.23R
ANN ARBOR      SUNNY     55  55 100 CALM      30.21R
BAD AXE        SUNNY     56  56  99 CALM      30.22S
6HR MIN TEMP:  47; 6HR MAX TEMP:  56;

CARO           SUNNY     54  51  90 CALM      30.22R
DETROIT CITY   SUNNY     62  53  72 N5        30.21R
6HR MIN TEMP:  57; 6HR MAX TEMP:  62;

DETROIT        MOSUNNY   62  52  69 N6        30.22R
6HR MIN TEMP:  56; 6HR MAX TEMP:  62;

FLINT          SUNNY     57  53  86 CALM      30.22R
6HR MIN TEMP:  47; 6HR MAX TEMP:  57;

GROSSE ILE     SUNNY     62  54  74 N5        30.20R
6HR MIN TEMP:  55; 6HR MAX TEMP:  63;

HILLSDALE      SUNNY     55  52  88 CALM      30.22R
HOWELL         SUNNY     57  54  92 CALM      30.23R
6HR MIN TEMP:  49; 6HR MAX TEMP:  57;


CITY           SKY/WX    TMP DP  RH WIND       PRES   REMARKS
JACKSON        SUNNY     57  54  89 CALM      30.23R
6HR MIN TEMP:  49; 6HR MAX TEMP:  57;

LAMBERTVILLE   SUNNY     58  55  88 CALM      30.21R
6HR MIN TEMP:  50; 6HR MAX TEMP:  58;

LANSING        SUNNY     60  55  83 CALM      30.23R
6HR MIN TEMP:  52; 6HR MAX TEMP:  60;

LAPEER         FAIR      54  54  97 N7        30.23R
6HR MIN TEMP:  48; 6HR MAX TEMP:  54;

MASON          SUNNY     54  54 100 E6        30.24R
MONROE         SUNNY     57  53  86 N3        30.20R
MT. CLEMENS    MOSUNNY   61  56  82 N6        30.18R
6HR MIN TEMP:  54; 6HR MAX TEMP:  61;

PONTIAC        MOSUNNY   61  53  75 N5        30.21R
6HR MIN TEMP:  53; 6HR MAX TEMP:  61;

PORT HOPE        N/A     63  57  81 CALM      30.20R
6HR MIN TEMP:  55; 6HR MAX TEMP:  66;

PORT HURON     SUNNY     59  55  88 NW6       30.21R
TRI CITIES     SUNNY     61  58  90 W6        30.23R
6HR MIN TEMP:  54; 6HR MAX TEMP:  61;

MIDLAND        FAIR      55  55 100 CALM      30.22R FOG
6HR MIN TEMP:  49; 6HR MAX TEMP:  55;

TROY           SUNNY     62  52  68 N3        30.23R
SAGINAW HB     SUNNY     61  55  82 CALM      30.22R
$$
MIZ043>046-050>051-056>058-064>065-071>073-077>080-251300-
SOUTHWEST LOWER MICHIGAN

CITY           SKY/WX    TMP DP  RH WIND       PRES   REMARKS
BATTLE CREEK   SUNNY     60  56  86 CALM      30.23R
6HR MIN TEMP:  55; 6HR MAX TEMP:  60;

BENTON HARBOR  MOSUNNY   63  57  81 SE6       30.20R
6HR MIN TEMP:  55; 6HR MAX TEMP:  63;

BIG RAPIDS     MOSUNNY   56  53  91 CALM      30.22S
6HR MIN TEMP:  52; 6HR MAX TEMP:  57;

COLDWATER      SUNNY     58  58 100 CALM      30.23R
6HR MIN TEMP:  53; 6HR MAX TEMP:  58;

FREMONT        FAIR      61  54  78 SE3       30.20S
HOLLAND        SUNNY     61  56  83 S8        30.21R
6HR MIN TEMP:  56; 6HR MAX TEMP:  61;

GRAND RAPIDS   PTSUNNY   61  57  87 SE3       30.22R
6HR MIN TEMP:  57; 6HR MAX TEMP:  61;

IONIA          FAIR      58  58  98 CALM      30.22S
6HR MIN TEMP:  51; 6HR MAX TEMP:  59;

KALAMAZOO      SUNNY     61  56  83 CALM      30.23R
6HR MIN TEMP:  55; 6HR MAX TEMP:  61;

LUDINGTON      SUNNY     60  56  85 E3        30.19R
6HR MIN TEMP:  49; 6HR MAX TEMP:  60;

MARSHALL       SUNNY     56  56  99 CALM      30.23R
6HR MIN TEMP:  51; 6HR MAX TEMP:  57;

MOUNT PLEASANT SUNNY     60  57  91 CALM      30.22R
6HR MIN TEMP:  54; 6HR MAX TEMP:  60;

MUSKEGON       PTSUNNY   63  57  81 SE8       30.20S
6HR MIN TEMP:  57; 6HR MAX TEMP:  63;

SOUTH HAVEN    SUNNY     62  60  94 CALM      30.21S
$$
MIZ016>042-251300-
NORTHERN LOWER MICHIGAN

CITY           SKY/WX    TMP DP  RH WIND       PRES   REMARKS
ALPENA         SUNNY     57  55  93 W5        30.23R
6HR MIN TEMP:  50; 6HR MAX TEMP:  57;

BEAVER ISLAND  SUNNY     56  56 100 CALM      30.20S
6HR MIN TEMP:  47; 6HR MAX TEMP:  56;

BELLAIRE       MOSUNNY   53  51  92 CALM      30.22S
6HR MIN TEMP:  45; 6HR MAX TEMP:  53;

CADILLAC       CLOUDY    59  53  79 CALM      30.21S
CHARLEVOIX     MOSUNNY   57  52  84 SE3       30.24R
FRANKFORT      SUNNY     56  55  95 CALM      30.20R
GAYLORD        SUNNY     56  50  80 CALM      30.23R
6HR MIN TEMP:  47; 6HR MAX TEMP:  56;

GRAYLING       SUNNY     51  47  86 CALM      30.24R
6HR MIN TEMP:  41; 6HR MAX TEMP:  51;

HARBOR SPRINGS SUNNY     57  52  85 CALM      30.22R
HOUGHTON LAKE  SUNNY     53  51  93 E5        30.24R
6HR MIN TEMP:  47; 6HR MAX TEMP:  53;

MANISTEE       SUNNY     56  54  93 E5        30.20R
OSCODA         SUNNY     58  53  85 W5        30.22R
6HR MIN TEMP:  50; 6HR MAX TEMP:  58;

PELLSTON       SUNNY     54  52  93 CALM      30.22R
6HR MIN TEMP:  45; 6HR MAX TEMP:  54;

ROGERS CITY    SUNNY     59  55  85 CALM      30.23R
TRAVERSE CITY  PTSUNNY   57  53  86 CALM      30.20R
6HR MIN TEMP:  50; 6HR MAX TEMP:  57;

$$
MIZ007>008-015-251300-
EASTERN UPPER MICHIGAN

CITY           SKY/WX    TMP DP  RH WIND       PRES   REMARKS
KINROSS        SUNNY     57  54  89 CALM      30.22R
6HR MIN TEMP:  49; 6HR MAX TEMP:  57;

MACKINAC ISLAN SUNNY     58  58 100 CALM      30.21R
6HR MIN TEMP:  53; 6HR MAX TEMP:  58;

NEWBERRY       SUNNY     55  55  97 CALM      30.21R
6HR MIN TEMP:  44; 6HR MAX TEMP:  55;

S. S. MARIE    SUNNY     58  53  84 CALM      30.21R
6HR MIN TEMP:  51; 6HR MAX TEMP:  58;

MUNISING         N/A     61  58  90 S6        30.17R
6HR MIN TEMP:  53; 6HR MAX TEMP:  61;

$$
MIZ004>006-011>014-085-251300-
CENTRAL UPPER MICHIGAN

CITY           SKY/WX    TMP DP  RH WIND       PRES   REMARKS
MANISTIQUE     SUNNY     56  53  89 CALM      30.19S
6HR MIN TEMP:  46; 6HR MAX TEMP:  56;

ESCANABA       SUNNY     56  55  97 CALM      30.19R
6HR MIN TEMP:  49; 6HR MAX TEMP:  56;

MENOMINEE      MOSUNNY   61  57  87 MISG      30.18S
6HR MIN TEMP:  53; 6HR MAX TEMP:  61;

SAWYER-GWINN   SUNNY     54  52  94 CALM      30.18S
$$
MIZ001>003-009>011-084-251300-
WESTERN UPPER MICHIGAN

CITY           SKY/WX    TMP DP  RH WIND       PRES   REMARKS
IRON MOUNTAIN  PTSUNNY   58  53  84 CALM      30.18R
6HR MIN TEMP:  52; 6HR MAX TEMP:  58;

HOUGHTON       SUNNY     62  55  77 CALM      30.13R
6HR MIN TEMP:  55; 6HR MAX TEMP:  62;

COPPER HARBOR    N/A     65  55  70 VRB7      30.11S
6HR MIN TEMP:  61; 6HR MAX TEMP:  65;

IRONWOOD       SUNNY     62  56  80 VRB5      30.13R
6HR MIN TEMP:  57; 6HR MAX TEMP:  64;

$$

ABBREVIATIONS USED IN REMARKS
   TC - TEMPERATURE IN CELSIUS
  WCI - WIND CHILL INDEX
   HX - HEAT INDEX
  VSB - VISIBILITY




USA.gov is the U.S. government's official web portal to all federal, state and local government web resources and services.